Location: ??
(35.5052°N, 139.7262°E)
Time: 03:01:29
(UTC+00:00)

Cosmos 968 Rocket - Pass Details

Date: 20 June 2021
Orbit: 741 x 770 km, 74.0° (Epoch: 26 July)

Event Time Altitude Azimuth Distance (km) Brightness Sun altitude
Rises 13:06:16 0° 340° (NNW) 3,186 8.0 -26.8°
Reaches altitude 10° 13:08:38 10° 339° (NNW) 2,261 6.9 -27.0°
Enters shadow 13:13:29 72° 281° (W) 786 3.5 -27.4°
